Vitoria da Conquista, Brazil

2:59 PM -03 on February 25, 2018 (GMT -0300)
Vitoria Da Conquista

Weather History for SBQV - February, 2014

Change the Weather History Date:

Saturday, February 8, 2014

  Actual Average Record
Temperature  
Mean Temperature 70 °F -  
Max Temperature 82 °F 80 °F - ()
Min Temperature 57 °F 64 °F - ()
Cooling Degree Days 4    
Growing Degree Days 20 (Base 50)    
Moisture  
Dew Point 64 °F    
Average Humidity 75    
Maximum Humidity 100    
Minimum Humidity 42    
Precipitation  
Precipitation 0.00 in 0.09 in - ()
Sea Level Pressure  
Sea Level Pressure 30.10 in    
Wind  
Wind Speed 9 mph ()    
Max Wind Speed 13 mph    
Max Gust Speed -    
Visibility 6.6 miles    
Events      
T = Trace of Precipitation, MM = Missing Value Source: Averaged Metar Reports

Daily Weather History Graph

Daily Weather History Graph

Search for Another Location

Airport or City:

Trip Planner

Search our weather history database for the weather conditions in past years. The results will help you decide how hot, cold, wet, or windy it might be!

Date:

Astronomy

Feb. 08, 2014 Rise Set
Actual Time 6:37 AM -02 7:17 PM -02
Civil Twilight 6:15 AM -02 7:39 PM -02
Nautical Twilight 5:49 AM -02 8:05 PM -02
Astronomical Twilight 5:22 AM -02 8:32 PM -02
Moon 2:29 PM -02 (2/8) 1:21 AM -02 (2/8)
Length of Visible Light 13h 24m
Length of Day
12h 39m
Waxing Gibbous, 67% of the Moon is Illuminated
Feb 8
Waxing Gibbous
Feb 14
Full
Feb 22
Last Quarter
Mar 1
New
Mar 8
First Quarter

Hourly Weather History & Observations

Time (-02) Temp. Heat Index Dew Point Humidity Pressure Visibility Wind Dir Wind Speed Gust Speed Precip Events Conditions
12:00 AM 68.0 °F - 66.2 °F 94% 30.15 in 6.2 mi East 10.4 mph - N/A   Scattered Clouds
1:00 AM 68.0 °F - 66.2 °F 94% 30.12 in 6.2 mi East 10.4 mph - N/A   Partly Cloudy
1:20 AM 66.2 °F - 66.2 °F 100% 30.12 in 6.2 mi East 10.4 mph - N/A   Partly Cloudy
5:30 AM 64.4 °F - 64.4 °F 100% 30.12 in 6.2 mi East 5.8 mph - N/A   Partly Cloudy
6:00 AM 62.6 °F - 62.6 °F 100% 30.12 in 6.2 mi ESE 4.6 mph - N/A   Partly Cloudy
7:00 AM 64.4 °F - 64.4 °F 100% 30.12 in 6.2 mi ESE 6.9 mph - N/A   Mostly Cloudy
8:00 AM 66.2 °F - 66.2 °F 100% 30.15 in 6.2 mi East 9.2 mph - N/A   Mostly Cloudy
8:29 AM 68.0 °F - 66.2 °F 94% 30.15 in 6.2 mi East 9.2 mph - N/A   Mostly Cloudy
9:00 AM 71.6 °F - 66.2 °F 83% 30.15 in 6.2 mi East 12.7 mph - N/A   Mostly Cloudy
10:00 AM 70 °F - 63 °F 72% 30.02 in 12 mi East 8.1 mph - -   Mostly Cloudy
10:00 AM 73.4 °F - 66.2 °F 78% 30.15 in 6.2 mi East 12.7 mph - N/A   Mostly Cloudy
11:00 AM 77.0 °F - 66.2 °F 69% 30.15 in 6.2 mi ESE 11.5 mph - N/A   Mostly Cloudy
12:00 PM 78.8 °F - 64.4 °F 61% 30.15 in 6.2 mi ESE 12.7 mph - N/A   Mostly Cloudy
1:00 PM 80.6 °F 81.8 °F 62.6 °F 54% 30.12 in 6.2 mi ESE 10.4 mph - N/A   Mostly Cloudy
2:00 PM 82.4 °F 83.4 °F 62.6 °F 51% 30.09 in 6.2 mi SE 11.5 mph - N/A   Scattered Clouds
3:00 PM 82.4 °F 82.9 °F 60.8 °F 48% 30.06 in 6.2 mi SE 10.4 mph - N/A   Scattered Clouds
4:00 PM 80 °F - 64 °F 49%  in 12 mi SE 8.1 mph - -   Partly Cloudy
4:00 PM 82.4 °F 82.9 °F 60.8 °F 48% 30.06 in 6.2 mi East 11.5 mph - N/A   Partly Cloudy
5:00 PM 82.4 °F 82.0 °F 57.2 °F 42% 30.04 in 6.2 mi SE 10.4 mph - N/A   Partly Cloudy
6:00 PM 80.6 °F 81.5 °F 60.8 °F 51% 30.04 in 6.2 mi ESE 11.5 mph - N/A   Partly Cloudy
7:00 PM 78.8 °F - 60.8 °F 54% 30.04 in 6.2 mi ESE 10.4 mph - N/A   Partly Cloudy
8:00 PM 75.2 °F - 64.4 °F 69% 30.06 in 6.2 mi ESE 10.4 mph - N/A   Partly Cloudy
9:00 PM 73.4 °F - 68.0 °F 83% 30.06 in 6.2 mi East 11.5 mph - N/A   Scattered Clouds
10:00 PM 71.6 °F - 68.0 °F 88% 30.09 in 6.2 mi East 12.7 mph - N/A   Scattered Clouds
11:00 PM 69.8 °F - 66.2 °F 88% 30.09 in 6.2 mi East 11.5 mph - N/A   Scattered Clouds
11:15 PM 69.8 °F - 66.2 °F 88% 30.09 in 6.2 mi East 9.2 mph - N/A   Scattered Clouds